Tracking 31027 objects as of 19-Jul-2025
HD Live streaming from Space Station
objects crossing your sky now

ARIANE 2 DEB

Track ARIANE 2 DEB now!


NORAD ID: 27625
Int'l Code: 1988-098H
Perigee: 876.4 km
Apogee: 39,418.4 km
Inclination: 4.3 °
Period: 716.3 minutes
Semi major axis: 26518 km
RCS: 0.1 m2 (medium)
Launch date: October 28, 1988
Source: France (FR)
Launch site: FRENCH GUIANA (FRGUI)

Note: This is SATELLITE DEBRIS
Your satellite tracking list
SL-16 DEB
Track 1 satellite(s)




NASA's NSSDC Master Catalog

Two Line Element Set (TLE):
1 27625U 88098H   25199.82057703 -.00000340  00000-0  45681-2 0  9997
2 27625   4.2631  38.4823 7267023  94.8174 189.7003  2.01039566168182
Source of the keplerian elements: AFSPC